| time (UTC) | temp F | wind direction | speed MPH | gust MPH | rain 1hr in | rain 24hr in | rain mn in | humidity % | barometer mb |
| 20260504191524 | 63 | 272 | 1.0 | 3.0 | 0.00 | 0.00 | 0.00 | 67 | 1016.4 |
| 20260504190052 | 63 | 255 | 2.0 | 4.0 | 0.00 | 0.00 | 0.00 | 65 | 1016.2 |
| 20260504184523 | 64 | 228 | 4.0 | 7.0 | 0.00 | 0.00 | 0.00 | 65 | 1016.2 |
| 20260504183046 | 64 | 268 | 4.0 | 10.0 | 0.00 | 0.00 | 0.00 | 66 | 1016.0 |
| 20260504181516 | 64 | 281 | 0.0 | 4.0 | 0.00 | 0.00 | 0.00 | 63 | 1015.9 |
| 20260504180049 | 65 | 251 | 1.0 | 5.0 | 0.00 | 0.00 | 0.00 | 58 | 1015.8 |
| 20260504174518 | 66 | 238 | 2.0 | 6.0 | 0.00 | 0.00 | 0.00 | 53 | 1015.6 |
| 20260504173054 | 67 | 229 | 5.0 | 10.0 | 0.00 | 0.00 | 0.00 | 51 | 1015.5 |
| 20260504171524 | 68 | 198 | 4.0 | 9.0 | 0.00 | 0.00 | 0.00 | 50 | 1015.5 |
| 20260504150106 | 73 | 134 | 5.0 | 6.0 | 0.00 | 0.00 | 0.00 | 41 | 1015.7 |
| 20260504081508 | 64 | 179 | 0.0 | 2.0 | 0.00 | 0.00 | 0.00 | 60 | 1018.4 |
| 20260504044516 | 49 | 326 | 0.0 | 1.0 | 0.00 | 0.00 | 0.00 | 83 | 1018.0 |
| 20260504043047 | 50 | 326 | 0.0 | 1.0 | 0.00 | 0.00 | 0.00 | 82 | 1017.8 |
| 20260504041517 | 49 | 326 | 0.0 | 1.0 | 0.00 | 0.00 | 0.00 | 83 | 1017.8 |
| 20260504040105 | 50 | 326 | 0.0 | 1.0 | 0.00 | 0.00 | 0.00 | 81 | 1017.6 |
| 20260504034522 | 50 | 326 | 0.0 | 1.0 | 0.00 | 0.00 | 0.00 | 80 | 1017.7 |
| 20260504033056 | 51 | 326 | 0.0 | 1.0 | 0.00 | 0.00 | 0.00 | 79 | 1017.7 |
| 20260504031534 | 51 | 326 | 0.0 | 1.0 | 0.00 | 0.00 | 0.00 | 78 | 1017.7 |
| 20260504030008 | 52 | 217 | 0.0 | 1.0 | 0.00 | 0.00 | 0.00 | 78 | 1017.8 |
| 20260504024554 | 52 | 217 | 0.0 | 1.0 | 0.00 | 0.00 | 0.00 | 77 | 1017.7 |
| 20260504023028 | 52 | 122 | 0.0 | 1.0 | 0.00 | 0.00 | 0.00 | 77 | 1017.9 |
| 20260504021511 | 53 | 103 | 0.0 | 1.0 | 0.00 | 0.00 | 0.00 | 76 | 1017.8 |
| 20260504020056 | 51 | 345 | 1.0 | 2.0 | 0.00 | 0.00 | 0.00 | 79 | 1017.9 |
| 20260504014530 | 52 | 345 | 0.0 | 2.0 | 0.00 | 0.00 | 0.00 | 78 | 1017.9 |
| 20260504013028 | 52 | 359 | 0.0 | 1.0 | 0.00 | 0.00 | 0.00 | 78 | 1017.8 |
| 20260504011505 | 53 | 359 | 0.0 | 0.0 | 0.00 | 0.00 | 0.00 | 76 | 1017.8 |
| 20260504010042 | 53 | 359 | 0.0 | 0.0 | 0.00 | 0.00 | 0.00 | 75 | 1017.8 |
| 20260504004522 | 54 | 359 | 0.0 | 1.0 | 0.00 | 0.00 | 0.00 | 74 | 1017.9 |
| 20260504003008 | 55 | 359 | 0.0 | 1.0 | 0.00 | 0.00 | 0.00 | 72 | 1017.9 |
| 20260504001607 | 55 | 359 | 0.0 | 2.0 | 0.00 | 0.00 | 0.00 | 72 | 1018.0 |
| 20260504000043 | 55 | 58 | 1.0 | 3.0 | 0.00 | 0.00 | 0.00 | 71 | 1018.1 |
| 20260503234531 | 55 | 22 | 1.0 | 4.0 | 0.00 | 0.00 | 0.00 | 71 | 1018.1 |
| 20260503233014 | 54 | 321 | 0.0 | 1.0 | 0.00 | 0.00 | 0.00 | 73 | 1018.1 |
| 20260503231503 | 54 | 321 | 0.0 | 0.0 | 0.00 | 0.00 | 0.00 | 72 | 1018.1 |
| 20260503230049 | 55 | 321 | 0.0 | 1.0 | 0.00 | 0.00 | 0.00 | 71 | 1018.0 |
| 20260503224533 | 56 | 61 | 0.0 | 3.0 | 0.00 | 0.00 | 0.00 | 70 | 1018.0 |
| 20260503223005 | 56 | 22 | 0.0 | 2.0 | 0.00 | 0.00 | 0.00 | 69 | 1018.1 |
| 20260503221549 | 55 | 91 | 0.0 | 1.0 | 0.00 | 0.00 | 0.00 | 70 | 1018.1 |
| 20260503220033 | 56 | 98 | 0.0 | 1.0 | 0.00 | 0.00 | 0.00 | 68 | 1018.0 |
| 20260503214512 | 57 | 320 | 1.0 | 2.0 | 0.00 | 0.00 | 0.00 | 67 | 1017.9 |
| 20260503213103 | 57 | 330 | 0.0 | 1.0 | 0.00 | 0.00 | 0.00 | 66 | 1017.9 |
| 20260503211543 | 57 | 330 | 0.0 | 1.0 | 0.00 | 0.00 | 0.00 | 66 | 1017.7 |
| 20260503210021 | 57 | 330 | 0.0 | 2.0 | 0.00 | 0.00 | 0.00 | 66 | 1017.6 |
| 20260503204513 | 58 | 360 | 0.0 | 1.0 | 0.00 | 0.00 | 0.00 | 64 | 1017.6 |
| 20260503203058 | 58 | 360 | 0.0 | 0.0 | 0.00 | 0.00 | 0.00 | 64 | 1017.5 |
| 20260503201549 | 59 | 360 | 0.0 | 1.0 | 0.00 | 0.00 | 0.00 | 63 | 1017.5 |
| 20260503200033 | 59 | 4 | 0.0 | 1.0 | 0.00 | 0.00 | 0.00 | 64 | 1017.5 |
| 20260503194509 | 60 | 4 | 0.0 | 0.0 | 0.00 | 0.00 | 0.00 | 62 | 1017.5 |
| 20260503193100 | 61 | 9 | 0.0 | 3.0 | 0.00 | 0.00 | 0.00 | 60 | 1017.3 |